This is the latest recevied weather packets stored in our database for station/object ALTO-WX. If no packets are shown the sender has not sent any weather packets the latest 1 day(s).
| Time | Temp. | Humidity | Pressure | Rain* | Wind** | Luminosity | Snow |
|---|---|---|---|---|---|---|---|
| 1778049053 | 5.56° C | 67% | 979.7 hPa | 0 mm | 2.24 m/s, 308° | - | - |
| 1778048136 | 5.56° C | 67% | 979.7 hPa | 0 mm | 2.24 m/s, 315° | - | - |
| 1778047272 | 5.56° C | 67% | 979.7 hPa | 0 mm | 2.68 m/s, 309° | - | - |
| 1778046336 | 5.56° C | 66% | 980.1 hPa | 0 mm | 2.24 m/s, 306° | - | - |
| 1778045451 | 6.11° C | 68% | 979.7 hPa | 0 mm | 2.24 m/s, 306° | - | - |
| 1778044535 | 6.11° C | 68% | 979.7 hPa | 0 mm | 1.79 m/s, 297° | - | - |
| 1778043669 | 6.11° C | 68% | 979.7 hPa | 0 mm | 1.79 m/s, 315° | - | - |
| 1778042736 | 6.11° C | 63% | 980.3 hPa | 0 mm | 2.24 m/s, 304° | - | - |
| 1778041851 | 6.11° C | 66% | 979.8 hPa | 0 mm | 2.68 m/s, 297° | - | - |
| 1778040936 | 6.11° C | 66% | 979.8 hPa | 0 mm | 2.24 m/s, 288° | - | - |
| 1778040072 | 6.67° C | 66% | 979.8 hPa | 0 mm | 2.24 m/s, 284° | - | - |
| 1778039145 | 6.67° C | 59% | 979.5 hPa | 0 mm | 2.68 m/s, 266° | - | - |
| 1778037335 | 6.67° C | 59% | 979.4 hPa | 0 mm | 1.34 m/s, 257° | - | - |
| 1778036473 | 7.22° C | 59% | 979.4 hPa | 0 mm | 2.24 m/s, 288° | - | - |
| 1778035535 | 7.22° C | 51% | 979.5 hPa | 0 mm | 2.68 m/s, 280° | - | - |
| 1778034653 | 7.22° C | 49% | 979.6 hPa | 0 mm | 1.79 m/s, 275° | - | - |
| 1778033734 | 7.22° C | 49% | 979.6 hPa | 0 mm | 2.24 m/s, 287° | - | - |
| 1778032858 | 7.78° C | 49% | 979.6 hPa | 0 mm | 2.24 m/s, 288° | - | - |
| 1778031934 | 7.78° C | 44% | 979.3 hPa | 0 mm | 1.79 m/s, 297° | - | - |
| 1778031055 | 8.33° C | 44% | 979.3 hPa | 0 mm | 2.24 m/s, 288° | - | - |
| 1778030134 | 8.33° C | 44% | 979.4 hPa | 0 mm | 2.24 m/s, 285° | - | - |
| 1778029260 | 8.89° C | 44% | 979.4 hPa | 0 mm | 2.24 m/s, 285° | - | - |
| 1778028333 | 9.44° C | 38% | 979.3 hPa | 0 mm | 2.24 m/s, 293° | - | - |
| 1778027449 | 9.44° C | 38% | 979.5 hPa | 0 mm | 2.68 m/s, 294° | - | - |
| 1778026534 | 10° C | 38% | 979.5 hPa | 0 mm | 3.13 m/s, 295° | - | - |
* Rain latest hour (hover to see other rain measurements)
** Current wind speed in m/s (hover to see current wind gust speed)